Hourly Weather Rusiny

Today, 15 April, Thursday

Time Temperature Precipitation Wind Pressure Humidity
00:00 +2°C° 0 mm 5 mps 750 mmHg 92%
01:00 +2°C° 0 mm 5 mps 750 mmHg 92%
02:00 +2°C° 0 mm 5 mps 750 mmHg 91%
03:00 +2°C° 0 mm 5 mps 750 mmHg 90%
04:00 +2°C° 0 mm 5 mps 750 mmHg 89%
05:00 +2°C° 0 mm 5 mps 749 mmHg 88%
06:00 +2°C° 0.3 mm 5 mps 750 mmHg 87%
07:00 +2°C° 0.3 mm 5 mps 750 mmHg 87%
08:00 +2°C° 0.3 mm 5 mps 750 mmHg 86%
09:00 +2°C° 0.7 mm 5 mps 750 mmHg 87%
10:00 +2°C° 0.7 mm 5 mps 750 mmHg 88%
11:00 +1°C° 0.7 mm 5 mps 750 mmHg 89%
12:00 +2°C° 0.3 mm 5 mps 749 mmHg 88%
13:00 +3°C° 0.3 mm 6 mps 749 mmHg 87%
14:00 +3°C° 0.3 mm 6 mps 749 mmHg 86%
15:00 +3°C° 0.3 mm 6 mps 749 mmHg 88%
16:00 +3°C° 0.3 mm 6 mps 749 mmHg 89%
17:00 +2°C° 0.3 mm 6 mps 749 mmHg 91%
18:00 +2°C° 0.1 mm 6 mps 749 mmHg 92%
19:00 +2°C° 0.1 mm 6 mps 749 mmHg 92%
20:00 +2°C° 0.1 mm 6 mps 749 mmHg 93%
21:00 +2°C° 0.2 mm 6 mps 748 mmHg 94%
22:00 +3°C° 0.2 mm 5 mps 748 mmHg 94%
23:00 +3°C° 0.2 mm 5 mps 748 mmHg 95%

Tomorrow, 16 April, Friday

Time Temperature Precipitation Wind Pressure Humidity
00:00 +3°C° 0.1 mm 5 mps 747 mmHg 95%
01:00 +3°C° 0.1 mm 6 mps 747 mmHg 95%
02:00 +3°C° 0.1 mm 6 mps 747 mmHg 96%
03:00 +3°C° 0.2 mm 5 mps 747 mmHg 96%
04:00 +5°C° 0.2 mm 5 mps 747 mmHg 95%
05:00 +5°C° 0.2 mm 5 mps 747 mmHg 95%
06:00 +5°C° 0.4 mm 5 mps 747 mmHg 95%
07:00 +5°C° 0.4 mm 5 mps 747 mmHg 95%
08:00 +5°C° 0.4 mm 5 mps 747 mmHg 95%
09:00 +6°C° 0 mm 5 mps 748 mmHg 93%
10:00 +7°C° 0 mm 5 mps 748 mmHg 90%
11:00 +8°C° 0 mm 5 mps 748 mmHg 87%
12:00 +9°C° 0 mm 6 mps 748 mmHg 86%
13:00 +9°C° 0 mm 6 mps 748 mmHg 85%
14:00 +10°C° 0 mm 6 mps 748 mmHg 84%
15:00 +10°C° 0.2 mm 6 mps 748 mmHg 83%
16:00 +10°C° 0.2 mm 6 mps 748 mmHg 82%
17:00 +10°C° 0.2 mm 6 mps 749 mmHg 82%
18:00 +10°C° 0.2 mm 6 mps 749 mmHg 84%
19:00 +9°C° 0.2 mm 6 mps 749 mmHg 87%
20:00 +8°C° 0.2 mm 5 mps 750 mmHg 90%
21:00 +8°C° 0 mm 5 mps 750 mmHg 90%
22:00 +8°C° 0 mm 5 mps 750 mmHg 91%
23:00 +7°C° 0 mm 5 mps 750 mmHg 92%

Day after tomorrow, 17 April, Saturday

Time Temperature Precipitation Wind Pressure Humidity
00:00 +7°C° 0 mm 5 mps 750 mmHg 92%
01:00 +7°C° 0 mm 5 mps 750 mmHg 93%
02:00 +7°C° 0 mm 4 mps 750 mmHg 94%
03:00 +7°C° 0 mm 4 mps 750 mmHg 93%
04:00 +7°C° 0 mm 4 mps 750 mmHg 91%
05:00 +7°C° 0 mm 4 mps 750 mmHg 90%
06:00 +8°C° 0.1 mm 4 mps 751 mmHg 90%
07:00 +8°C° 0.1 mm 4 mps 751 mmHg 90%
08:00 +9°C° 0.1 mm 3 mps 752 mmHg 90%
09:00 +10°C° 0 mm 4 mps 752 mmHg 85%
10:00 +10°C° 0 mm 4 mps 752 mmHg 80%
11:00 +11°C° 0 mm 4 mps 752 mmHg 75%
12:00 +12°C° 0.1 mm 5 mps 752 mmHg 74%
13:00 +12°C° 0.1 mm 5 mps 753 mmHg 72%
14:00 +12°C° 0.1 mm 5 mps 753 mmHg 70%
15:00 +12°C° 0 mm 5 mps 753 mmHg 72%
16:00 +11°C° 0 mm 4 mps 753 mmHg 74%
17:00 +11°C° 0 mm 4 mps 753 mmHg 76%
18:00 +11°C° 0 mm 4 mps 753 mmHg 78%
19:00 +10°C° 0 mm 3 mps 753 mmHg 79%
20:00 +10°C° 0 mm 3 mps 753 mmHg 81%
21:00 +10°C° 0 mm 3 mps 753 mmHg 82%
22:00 +9°C° 0 mm 3 mps 753 mmHg 84%
23:00 +8°C° 0 mm 4 mps 753 mmHg 85%

18 April, Sunday

Time Temperature Precipitation Wind Pressure Humidity
00:00 +8°C° 0 mm 4 mps 753 mmHg 87%
01:00 +7°C° 0 mm 4 mps 753 mmHg 88%
02:00 +7°C° 0 mm 4 mps 753 mmHg 90%
03:00 +6°C° 0 mm 4 mps 753 mmHg 91%
04:00 +5°C° 0 mm 4 mps 753 mmHg 92%
05:00 +5°C° 0 mm 4 mps 753 mmHg 92%
06:00 +6°C° 0 mm 4 mps 753 mmHg 86%
07:00 +7°C° 0 mm 4 mps 753 mmHg 80%
08:00 +8°C° 0 mm 5 mps 753 mmHg 73%
09:00 +9°C° 0 mm 5 mps 753 mmHg 69%
10:00 +10°C° 0 mm 5 mps 753 mmHg 64%
11:00 +13°C° 0 mm 5 mps 753 mmHg 59%
12:00 +13°C° 0 mm 5 mps 753 mmHg 57%
13:00 +14°C° 0 mm 5 mps 753 mmHg 56%
14:00 +15°C° 0 mm 5 mps 753 mmHg 54%
15:00 +14°C° 0 mm 4 mps 753 mmHg 55%
16:00 +14°C° 0 mm 4 mps 753 mmHg 57%
17:00 +14°C° 0 mm 3 mps 753 mmHg 58%
18:00 +13°C° 0 mm 3 mps 753 mmHg 61%
19:00 +12°C° 0 mm 3 mps 753 mmHg 64%
20:00 +12°C° 0 mm 2 mps 753 mmHg 67%
21:00 +12°C° 0 mm 2 mps 754 mmHg 69%
22:00 +10°C° 0 mm 2 mps 754 mmHg 71%
23:00 +10°C° 0 mm 2 mps 754 mmHg 73%

19 April, Monday

Time Temperature Precipitation Wind Pressure Humidity
00:00 +10°C° 0 mm 2 mps 754 mmHg 74%
01:00 +10°C° 0 mm 2 mps 754 mmHg 75%
02:00 +9°C° 0 mm 2 mps 754 mmHg 76%
03:00 +9°C° 0 mm 2 mps 754 mmHg 76%
04:00 +9°C° 0 mm 2 mps 754 mmHg 76%
05:00 +9°C° 0 mm 2 mps 754 mmHg 76%
06:00 +9°C° 0 mm 2 mps 754 mmHg 74%
07:00 +10°C° 0 mm 2 mps 754 mmHg 72%
08:00 +10°C° 0 mm 3 mps 754 mmHg 70%
09:00 +11°C° 0 mm 3 mps 754 mmHg 61%
10:00 +13°C° 0 mm 4 mps 754 mmHg 53%
11:00 +14°C° 0 mm 4 mps 754 mmHg 44%
12:00 +14°C° 0 mm 4 mps 754 mmHg 43%
13:00 +15°C° 0 mm 4 mps 754 mmHg 41%
14:00 +15°C° 0 mm 4 mps 753 mmHg 40%
15:00 +15°C° 0 mm 4 mps 753 mmHg 43%
16:00 +14°C° 0 mm 4 mps 753 mmHg 45%
17:00 +14°C° 0 mm 4 mps 753 mmHg 48%
18:00 +13°C° 0 mm 3 mps 753 mmHg 54%
19:00 +12°C° 0 mm 2 mps 753 mmHg 61%
20:00 +10°C° 0 mm 2 mps 753 mmHg 67%
21:00 +10°C° 0 mm 2 mps 753 mmHg 68%
22:00 +9°C° 0 mm 3 mps 753 mmHg 69%
23:00 +9°C° 0 mm 3 mps 753 mmHg 70%

20 April, Tuesday

Time Temperature Precipitation Wind Pressure Humidity
00:00 +8°C° 0 mm 3 mps 753 mmHg 75%
01:00 +7°C° 0 mm 3 mps 753 mmHg 80%
02:00 +6°C° 0 mm 2 mps 753 mmHg 84%
03:00 +6°C° 0 mm 2 mps 753 mmHg 86%
04:00 +4°C° 0 mm 3 mps 753 mmHg 87%
05:00 +4°C° 0 mm 3 mps 753 mmHg 89%
06:00 +5°C° 0 mm 3 mps 753 mmHg 82%
07:00 +7°C° 0 mm 4 mps 753 mmHg 74%
08:00 +8°C° 0 mm 4 mps 752 mmHg 67%
09:00 +9°C° 0 mm 5 mps 752 mmHg 61%
10:00 +10°C° 0 mm 5 mps 752 mmHg 55%
11:00 +12°C° 0 mm 5 mps 752 mmHg 48%
12:00 +13°C° 0 mm 5 mps 751 mmHg 47%
13:00 +13°C° 0 mm 5 mps 751 mmHg 45%
14:00 +14°C° 0 mm 5 mps 750 mmHg 43%
15:00 +14°C° 0 mm 5 mps 750 mmHg 45%
16:00 +14°C° 0 mm 5 mps 749 mmHg 47%
17:00 +13°C° 0 mm 5 mps 749 mmHg 49%
18:00 +11°C° 0 mm 4 mps 749 mmHg 52%
19:00 +10°C° 0 mm 3 mps 749 mmHg 56%
20:00 +8°C° 0 mm 3 mps 749 mmHg 59%
21:00 +7°C° 0 mm 3 mps 749 mmHg 61%
22:00 +6°C° 0 mm 2 mps 749 mmHg 63%
23:00 +5°C° 0 mm 2 mps 748 mmHg 65%
Show more